{"data":{"norad_id":50501,"intl_designator":"2021-132AJ","name":"ONEWEB-0430","alt_names":[],"object_type":"PAYLOAD","status":"ACTIVE","operator":null,"country":"UK","launch_date":"2021-12-27","launch_site_code":"TYMSC","launch_vehicle":null,"mission":null,"orbit_class":"UNKNOWN","rcs_meters":null,"size_class":null,"mass_kg":null,"dimensions":null,"purposes":["comms"],"wikipedia_slug":null,"has_3d_model":false,"image_url":null,"decayed_at":null,"tle_current":{"epoch":"2026-05-25T02:37:15.091680Z","epoch_age_seconds":62707,"freshness":"FRESH","line1":"1 50501U 21132AJ  26145.10920245 -.00000873  00000+0 -22464-2 0  9990","line2":"2 50501  87.9161 340.0511 0001612  91.2207 268.9110 13.18694924218588","mean_motion":13.18694924,"eccentricity":0.0001612,"inclination_deg":87.9161,"raan_deg":340.0511,"arg_perigee_deg":91.2207,"mean_anomaly_deg":268.911,"bstar":-0.0022464,"rev_number":21858,"period_min":109.19887335518,"perigee_km":1188.4890473283,"apogee_km":1190.9289208736,"semimajor_km":7567.8459841009,"source":"CELESTRAK","updated_at":"2026-05-25T13:38:22.573969Z"}}}